Regional Weather Roundup
Issued by NWS

Home | Current Version | Previous Version | Text Only | Print | Product List | Glossary On
Versions: 1 2 3 4 5 6 7 8 9 10 11 12 13 14 15 16 17 18 19 20 21 22 23 24 25 26 27 28 29 30 31 32 33 34 35 36 37 38 39 40 41 42 43 44 45 46 47 48 49 50
000
ASUS43 KMKX 021300
RWRWI

WISCONSIN REGIONAL WEATHER ROUNDUP
NATIONAL WEATHER SERVICE MILWAUKEE/SULLIVAN WI
800 AM CDT TUE JUN 02 2015

NOTE: "FAIR" INDICATES FEW OR NO CLOUDS BELOW 12,000 FEET WITH NO
SIGNIFICANT WEATHER AND/OR OBSTRUCTIONS TO VISIBILITY.

WIZ001-002-006>008-014>016-023>028-021400-
NORTHWEST WISCONSIN

CITY           SKY/WX    TMP DP  RH WIND       PRES   REMARKS
SUPERIOR ARPT  MOSUNNY   46  40  79 NE6       30.09S
ASHLAND        PTSUNNY   56  39  53 S5        30.12F
HAYWARD        SUNNY     56  38  50 S8        30.13S
SIREN          SUNNY     58  41  54 S7        30.09R
CUMBERLAND     SUNNY     52  39  62 S8        30.11S
RICE LAKE      SUNNY     53  39  57 SE9       30.14S
CHETEK         SUNNY     52  41  66 SE6       30.13S
LADYSMITH      SUNNY     52  39  61 SE6       30.17S
EAU CLAIRE     NOT AVBL
MENOMONIE      MOSUNNY   54  41  61 SE8       30.13F
NEW RICHMOND   SUNNY     57  43  59 S13       30.10S
OSCEOLA        SUNNY     57  44  60 S12G17    30.12S
$$

WIZ003>005-009-010-017-018-021400-
NORTH CENTRAL WISCONSIN

CITY           SKY/WX    TMP DP  RH WIND       PRES   REMARKS
MANITOWISH WTR SUNNY     52  38  59 S8        30.18R
ARBOR VITAE    SUNNY     54  39  56 S8        30.18R
WOODRUFF       SUNNY     54  39  56 S8        30.18R
RHINELANDER    SUNNY     51  38  60 S5        30.20R
EAGLE RIVER    MOSUNNY   50  38  63 CALM      30.18S
LAND O LAKES   MOSUNNY   47  40  78 CALM      30.20R
PHILLIPS       SUNNY     52  37  56 S7        30.16S
TOMAHAWK       SUNNY     48  41  76 CALM      30.19S
MEDFORD        SUNNY     49  39  69 S9        30.17F
MERRILL        SUNNY     49  42  75 SE3       30.20F
$$

WIZ029-030-035-036-043>047-021400-
CENTRAL WISCONSIN

CITY           SKY/WX    TMP DP  RH WIND       PRES   REMARKS
WAUSAU         NOT AVBL
MOSINEE        NOT AVBL
MARSHFIELD     NOT AVBL
STEVENS POINT  SUNNY     50  38  62 S6        30.21S
WAUPACA        SUNNY     50  46  84 CALM      30.21F
WAUTOMA        NOT AVBL
WISC RAPIDS    NOT AVBL
CAMP DOUGLAS   NOT AVBL
$$

WIZ011>013-019>022-031-037>040-048>050-021400-
NORTHEAST WISCONSIN

CITY           SKY/WX    TMP DP  RH WIND       PRES   REMARKS
ANTIGO         SUNNY     50  42  75 S3        30.20S
SHAWANO        SUNNY     52  46  82 E3        30.22S
OCONTO         SUNNY     50  46  87 CALM      30.21S
STURGEON BAY   SUNNY     52  39  62 CALM      30.24S
GREEN BAY      SUNNY     55  41  59 CALM      30.22S
MANITOWOC      NOT AVBL
APPLETON       MOSUNNY   54  43  66 VRB3      30.22R
CLINTONVILLE   SUNNY     48  43  81 CALM      30.21S
OSHKOSH        SUNNY     56  41  57 CALM      30.21R
$$

WIZ032>034-041-042-053>061-021400-
SOUTHWEST WISCONSIN

CITY           SKY/WX    TMP DP  RH WIND       PRES   REMARKS
LA CROSSE      SUNNY     58  42  55 S13       30.17S
SPARTA         SUNNY     52  39  61 CALM      30.19S
VIROQUA        SUNNY     51  38  60 SE8       30.18F
BOSCOBEL       SUNNY     54  43  66 NE3       30.20S
PRAIRIE DU CHI SUNNY     52  41  67 E3        30.18S
PLATTEVILLE    PTSUNNY   52  42  68 SE7       30.20R
$$

WIZ056-057-062-063-064-067-068-021400-
SOUTH CENTRAL WISCONSIN

CITY           SKY/WX    TMP DP  RH WIND       PRES   REMARKS
REEDSBURG      SUNNY     47  41  81 CALM      30.20S
BARABOO/DELLS  SUNNY     51  40  66 CALM      30.21R
LONE ROCK      NOT AVBL
MINERAL POINT  MOSUNNY   54  37  54 SE6       30.20R
MADISON        MOSUNNY   53  38  56 CALM      30.21R
MIDDLETON      SUNNY     53  39  59 S3        30.22R
WATERTOWN      SUNNY     51  45  79 CALM      30.21R
MONROE         MOSUNNY   52  39  62 CALM      30.21S
JANESVILLE     MOSUNNY   52  39  62 CALM      30.21R
$$

WIZ051-052-058>065-066-070>072-021400-
SOUTHEAST WISCONSIN

CITY           SKY/WX    TMP DP  RH WIND       PRES   REMARKS
MILWAUKEE      MOSUNNY   53  39  59 NE3       30.23R
WAUKESHA       SUNNY     50  37  62 CALM      30.22F
MILWAUKEE/TIMM SUNNY     54  36  50 CALM      30.23S
RACINE         SUNNY     53  43  68 E5        30.23F
BURLINGTON     SUNNY     48  41  76 E3        30.21S
KENOSHA          N/A    N/A N/A N/A MISG      30.22S
FOND DU LAC    SUNNY     54  42  64 S3        30.21S
SHEBOYGAN      SUNNY     52  41  66 CALM      30.22S
WEST BEND      SUNNY     50  41  71 CALM      30.22S
JUNEAU         SUNNY     51  42  71 CALM      30.22S
$$

LSZ147-162-021400-
LAKE SUPERIOR

STATION/POSITION TIME  TEMP    WIND        PRES    WAVE
                       AIR SEA DIR/SP/G            HT/PER
                 (UTC) (F)     (DEG/KT/KT) (MB)    (FT/S)
W MID LAKE BUOY  1150   42 37  150/  6/  8   N/A     1
DEVILS ISLAND    1200   53     190/  5/  6   N/A
PORT WING        1200   41      20/  4/  6   N/A
SAXON HARBOR     1200   56     190/  6/ 11   N/A
$$

LMZ867-665-643>646-021400-
LAKE MICHIGAN

STATION/POSITION TIME  TEMP    WIND        PRES    WAVE
                       AIR SEA DIR/SP/G            HT/PER
                 (UTC) (F)     (DEG/KT/KT) (MB)    (FT/S)
CHAMBERS ISLAND  1200   53     170/  1/  3   N/A
N MID LAKE BUOY  1150   43 37  160/  4/  6   N/A     0
NORTHPORT PIER   1200   54      CALM  /  3   N/A
SISTER BAY       1218   57     180/  6/  7   N/A
ALGOMA LAKESHORE 1209             CALM       N/A
KEWAUNEE LAKESHO 1200   46      CALM  /  1   N/A
SHEBOYGAN LAKESH 1200   51      CALM  /  1   N/A
PORT WASHINGTON  1240   54      70/  2/  2   N/A
ATWATER BUOY     1200   46     360/  4/  6   N/A
MILWAUKEE LAKESH 1200   52      30/  1/  3   N/A
S MID LAKE BUOY  1150   42 38   60/  6/  6   N/A     1
KENOSHA   LAKESH 1200   48     360/  6/  6   N/A
$$

TC  - TEMPERATURE IN CELSIUS
VSB - VISIBILITY IN STATUTE MILES
WCI - WIND CHILL INDEX
HX  - HEAT INDEX




USA.gov is the U.S. government's official web portal to all federal, state and local government web resources and services.